Location: West Cummington
(42.4920°N, 72.9680°W)
Time: 14:23:37
(UTC-04:00)

Daily predictions for brighter satellites

Satellite Brightness Start Highest point End
(mag) Time Altitude Azimuth Time Altitude Azimuth Time Altitude Azimuth
Cosmos 2181 Rocket 4.1 19:01:43 10° N 19:07:49 55° ENE 19:13:48 10° SSE
FENGYUN 3A 3.8 19:03:04 10° SSE 19:08:17 57° ENE 19:13:33 10° N
COSMO-SKYMED 1 2.8 19:08:09 10° N 19:12:30 77° WNW 19:16:50 10° SSW
COSMOS 2406 4.3 19:08:58 10° SSE 19:13:20 23° E 19:17:44 10° NE
Lacrosse 5 3.9 19:10:07 10° WNW 19:14:26 28° SW 19:18:43 10° S
METEOR-M 4.4 19:09:24 10° S 19:14:44 76° WSW 19:20:07 10° NNW
Thor Agena Rocket 3.8 19:10:32 10° NNE 19:15:39 51° E 19:20:40 10° S
Cosmos 2292 Rocket 4.1 19:12:52 10° SSW 19:15:57 44° W 19:18:48 10° N
Cosmos 2369 Rocket 3.3 19:10:35 10° NW 19:16:02 50° WSW 19:21:23 10° S
Cosmos 332 Rocket 4.3 19:11:26 10° SSW 19:16:17 69° WNW 19:21:10 10° NNE
NOAA 12 4.1 19:11:55 10° SSE 19:17:08 80° ENE 19:22:26 10° NNW
Cosmos 1758 Rocket 3.6 19:14:52 10° N 19:19:22 69° E 19:23:51 10° SSE
Cosmos 1707 2.8 19:17:04 10° N 19:20:57 55° E 19:24:48 10° SSE
Cosmos 371 Rocket 3.6 19:16:18 10° SSW 19:21:10 74° WNW 19:26:05 10° NNE
Cosmos 2074 Rocket 4.4 19:18:23 10° SSE 19:24:02 38° E 19:29:42 10° NNE
DMSP B5D1-3 4.5 19:20:06 10° NNE 19:25:14 84° ESE 19:30:20 10° SSW
Cosmos 1726 Rocket 3.5 19:21:01 10° S 19:25:21 72° E 19:29:42 10° NNE
SPOT 3 Rocket 4.4 19:24:55 10° S 19:29:57 54° W 19:35:01 10° NNW
Cosmos 1709 Rocket 4.3 19:25:34 10° S 19:31:55 80° W 19:38:21 10° N
BREEZE-M DEB (TANK) 3.4 19:30:28 10° NW 19:32:28 18° N 19:33:59 10° NE
Cosmos 1378 3.1 19:32:50 10° N 19:36:38 79° E 19:40:24 10° S
Cosmos 1898 Rocket 4.3 19:32:33 10° NNW 19:37:37 54° WSW 19:42:37 10° S
Cosmos 1544 4.1 19:35:47 10° SE 19:38:45 24° E 19:41:43 10° NE
Cosmos 1271 Rocket 4.0 19:35:24 10° SSW 19:39:01 45° WNW 19:42:43 10° N
ATLAS CENTAUR R/B 3.7 19:23:03 10° NW 19:39:23 82° NE 19:44:27 11° SE
Cosmos 2084 3.2 19:35:26 10° SSW 19:39:31 80° SE 19:43:26 10° NE
Cosmos 1814 Rocket 4.1 19:35:20 10° SSW 19:40:30 84° WNW 19:45:40 10° NNE
Cosmos 990 Rocket 4.2 19:38:48 10° NNW 19:43:58 76° WSW 19:49:05 10° SSE
Cosmos 1340 Rocket 3.8 19:42:38 10° NNW 19:46:36 51° W 19:50:32 10° S
Cosmos 1125 Rocket 4.1 19:43:18 10° N 19:48:13 37° ENE 19:52:05 15° SE
Milstar 3 Cent rocket 4.0 19:50:25 10° S 19:51:52 11° SSE 19:53:15 10° SSE
Resurs 01 Rocket 2.2 19:50:31 13° SE 19:54:00 37° ENE 19:58:05 10° N
Cosmos 2228 3.1 19:50:17 10° S 19:54:39 83° W 19:59:00 10° N
Cosmos 1805 4.1 19:51:20 10° SSE 19:54:40 27° E 19:58:00 10° NNE
USA 81 4.3 19:52:27 10° N 19:57:44 74° W 20:02:59 10° S
Envisat 3.6 19:54:45 16° SE 19:58:17 36° ENE 20:02:54 10° N
GP-B 3.8 19:54:21 10° NNE 19:58:22 32° E 20:01:08 17° SE
Cosmos 2184 Rocket 4.0 19:54:13 10° S 20:00:28 72° E 20:06:49 10° NNE
CZ-2D R/B 3.4 19:57:37 14° SSE 20:00:46 51° ENE 20:04:29 10° N
Cosmos 1812 Rocket 4.0 19:59:57 10° SSE 20:04:04 39° E 20:08:14 10° NNE
Meteor 2-8 Rocket 4.5 19:58:58 10° N 20:05:02 59° ENE 20:11:02 10° SSE
ISS -1.4 20:03:19 10° S 20:03:32 11° SSE 20:03:32 11° SSE
Cosmos 304 Rocket 3.9 20:02:25 10° SSW 20:07:13 80° WNW 20:12:03 10° NNE
Cosmos 2058 Rocket 3.9 20:04:06 10° SSW 20:08:21 53° W 20:12:40 10° N
USA 186 3.2 20:10:59 17° NNE 20:10:59 17° NNE 20:11:48 10° N
Meteor 1-24 Rocket 3.8 20:03:57 10° N 20:09:59 87° E 20:15:47 10° S
ATLAS 2AS CENTAUR R/B 4.1 20:04:33 10° NNW 20:11:25 29° NNE 20:15:31 19° ENE
Cosmos 1943 Rocket 4.2 20:08:34 10° NW 20:13:14 28° WSW 20:17:56 10° SSW
Cosmos 1356 Rocket 4.0 20:13:06 10° NNW 20:17:22 62° W 20:21:36 10° S
Meteor 2-19 Rocket 4.4 20:12:08 10° S 20:18:02 59° E 20:23:59 10° NNE
Cosmos 841 Rocket 4.0 20:12:58 10° SSW 20:18:02 60° WNW 20:23:08 10° NNE
SJ-6B 3.7 20:14:13 10° S 20:18:08 51° W 20:22:00 10° NNW
Cosmos 1953 3.7 20:22:47 24° NE 20:22:47 24° NE 20:24:53 10° NNE
NOSS 3-1 (A) 4.1 20:13:36 10° NW 20:21:17 86° SW 20:28:16 16° SSE
Cosmos 2327 Rocket 4.4 20:15:48 10° S 20:21:57 86° W 20:28:04 10° N
Okean 3 Rocket 4.5 20:22:18 10° NNE 20:25:53 31° ENE 20:25:53 31° ENE
Cosmos 1697 Rocket 4.3 20:23:43 10° N 20:27:32 18° NE 20:28:06 18° NE
Cosmos 1980 Rocket 4.2 20:26:03 10° NNE 20:28:02 12° NE 20:28:39 12° NE
SJ-11-01 4.4 20:36:03 48° E 20:36:37 51° ENE 20:41:12 10° N
Cosmos 540 Rocket 3.5 20:33:35 10° SSW 20:38:41 78° WNW 20:43:49 10° NNE
Helios 1A 4.5 20:40:40 24° NE 20:40:40 24° NE 20:42:54 10° N
Cosmos 1900 4.4 20:36:02 10° SSW 20:40:59 57° ESE 20:43:04 33° NE
Cosmos 962 Rocket 4.5 20:37:34 10° S 20:43:49 62° E 20:50:07 10° NNE
MOS 1-B Rocket 4.0 20:46:10 16° S 20:51:17 77° WSW 20:56:59 10° NNW
COSMOS 2406 4.0 20:51:40 10° SW 20:57:13 53° WNW 21:02:52 10° NNE
ARGOS 4.4 21:01:12 27° NE 21:01:12 27° NE 21:04:38 10° N
BREEZE M DEB (TANK) 4.0 20:55:50 10° WNW 21:00:22 31° SW 21:00:22 31° SW
Cosmos 1758 3.8 21:04:38 59° WNW 21:04:38 59° WNW 21:08:24 10° N
Spot 2 Rocket 4.2 21:01:55 23° SSW 21:04:50 50° W 21:09:45 10° NNW
Cosmos 2154 Rocket 4.3 20:59:25 10° SSW 21:05:35 67° W 21:11:51 10° N
Meteor 1-21 Rocket 4.2 21:01:05 10° N 21:06:51 86° W 21:08:07 57° S
YAOGAN 6 4.4 21:09:19 27° NNW 21:09:19 27° NNW 21:11:03 10° NNW
Cosmos 2369 3.8 21:06:36 10° NNW 21:11:53 60° NE 21:11:53 60° NE
Cosmos 1939 Rocket 3.9 21:16:00 43° WNW 21:16:00 43° WNW 21:19:01 10° NNW
Cosmos 1674 4.2 21:11:56 10° NNW 21:14:20 34° NW 21:14:20 34° NW
Cosmos 2341 Rocket 4.0 21:10:05 11° SSW 21:16:07 78° W 21:22:22 10° N
ERS-1 Rocket 4.0 21:31:51 38° N 21:31:51 38° N 21:34:59 10° N
Resurs 01 Rocket 3.9 21:28:06 14° SW 21:30:35 21° W 21:33:56 10° NW
GEOS 3 Rocket 4.4 21:34:03 44° SW 21:34:03 44° SW 21:37:38 10° SW
FALCON 9 R/B 3.5 21:32:18 10° WSW 21:34:47 32° SW 21:34:47 32° SW
Cosmos 2218 Rocket 4.3 21:45:54 59° N 21:45:54 59° N 21:50:50 10° N
Cosmos 2285 Rocket 4.1 21:46:04 73° NNW 21:46:04 73° NNW 21:52:08 10° NNE
H-2A R/B 3.8 21:49:43 23° N 21:49:43 23° N 21:51:38 10° N
Cosmos 2278 4.2 21:41:36 10° NNW 21:46:09 57° NW 21:46:09 57° NW
Cosmos 2322 Rocket 4.4 21:57:27 10° N 21:59:11 16° NNE 21:59:11 16° NNE
ATLAS 2AS CENTAUR R/B 2.9 21:55:28 10° NW 22:02:57 79° NW 22:02:57 79° NW
Cosmos 1697 Rocket 4.0 22:06:31 10° NNW 22:09:50 37° NNW 22:09:50 37° NNW
Cosmos 1980 Rocket 3.7 22:07:38 10° NNW 22:10:25 29° N 22:10:25 29° N
BREEZE-M DEB (TANK) 4.4 22:14:47 10° WNW 22:24:49 47° NNW 22:24:49 47° NNW
USA 267 4.5 22:29:38 33° N 22:29:38 33° N 22:34:48 10° NW
SL-16 R/B 4.4 22:33:29 10° N 22:35:11 19° N 22:35:11 19° N
